Wind_Speed
24 24 23 23 22 21 21 20 20 19 19 19 19 19 19 19 19 19 20 21 22 24 25 26 27 28 31 33 34 35 36 37 38 39 40 41 42 42 43 44 45 46 46 47
26 26 26 25 24 23 23 23 22 22 21 22 22 22 22 22 22 22 23 23 25 26 27 28 29 31 32 34 35 36 37 38 39 40 42 43 44 45 46 46 47 47 48 48
29 28 29 28 26 26 27 26 25 25 25 25 25 25 25 25 26 26 26 27 28 29 29 30 32 33 34 35 36 37 38 39 41 42 43 44 45 46 46 47 48 48 49 49
32 30 31 30 29 29 29 29 29 29 29 30 29 29 28 28 29 29 30 30 31 32 33 34 35 36 36 37 38 40 40 41 42 43 44 45 46 47 47 48 49 49 49 49
35 35 34 32 32 33 33 32 32 32 33 33 33 32 32 32 32 33 33 34 35 35 36 37 38 39 40 40 41 42 43 44 45 45 46 46 47 48 49 49 50 50 50 50
38 38 38 36 36 36 36 35 35 35 35 35 36 36 35 36 36 36 36 37 38 39 39 40 41 42 42 43 44 44 45 46 47 47 48 48 49 49 50 50 51 51 51 51
39 41 40 39 39 39 39 38 38 38 38 38 38 38 38 38 39 39 40 40 41 41 42 43 43 44 44 44 45 47 48 48 49 50 50 51 51 52 52 52 52 52 52 52
41 42 41 41 41 41 41 41 41 41 41 41 41 41 41 41 42 43 43 43 44 45 45 45 45 46 46 46 47 48 49 50 50 51 52 52 52 53 53 52 53 53 53 53
43 43 42 43 43 43 43 43 43 43 43 43 44 44 44 44 44 45 46 46 46 46 45 45 46 47 47 47 47 48 49 49 50 51 52 53 53 53 53 53 53 53 54 53
44 43 43 44 44 44 45 45 46 46 46 46 46 46 46 46 46 46 46 46 46 45 45 45 46 46 47 47 47 48 49 49 50 51 51 52 52 53 53 53 53 53 53 53
46 45 45 45 45 46 47 48 48 48 48 48 48 48 48 48 48 47 47 46 46 46 46 46 46 47 47 48 48 48 48 49 50 51 51 51 51 51 52 52 52 52 53 53
47 47 48 47 47 48 48 49 49 49 49 49 50 49 49 49 49 48 47 47 47 47 47 47 47 48 48 48 49 49 49 49 50 50 50 50 50 50 50 51 51 51 52 52
49 49 49 49 49 49 50 50 50 50 50 51 50 50 50 49 49 49 49 49 49 49 49 49 49 48 49 49 49 49 49 49 49 50 50 50 50 50 50 49 50 50 50 51
50 50 50 50 50 50 51 50 50 51 51 51 51 51 51 51 51 50 50 50 51 50 50 50 49 49 49 49 49 49 48 49 49 49 50 50 50 50 50 49 49 49 49 49
50 50 50 50 50 50 51 51 50 51 51 51 51 51 51 50 50 51 51 50 50 50 49 49 48 48 48 48 48 48 48 48 49 49 49 49 50 50 49 49 48 48 47 47
50 50 50 50 50 50 50 50 50 49 50 50 49 49 49 49 49 49 48 48 48 47 47 47 47 47 47 47 47 47 46 46 47 47 47 47 48 48 47 47 46 45 44 44
49 49 49 49 49 49 48 48 48 47 47 47 47 47 47 47 47 46 45 45 45 45 44 44 44 44 45 45 45 44 44 44 45 45 45 45 45 45 44 44 43 42 41 41
46 47 47 47 47 46 46 46 46 45 45 45 45 44 44 44 44 43 43 43 43 43 43 43 43 43 43 43 43 43 43 43 43 43 43 42 42 42 42 41 40 40 40 40
44 44 44 45 45 45 44 44 44 43 43 43 43 42 42 42 41 41 41 41 41 41 41 42 42 42 42 42 42 42 42 42 42 41 41 41 40 40 39 39 39 38 38 38
42 42 42 42 42 42 42 42 42 41 41 41 41 41 41 41 41 41 40 40 41 41 41 41 41 41 41 42 41 41 40 40 40 40 39 39 39 38 38 38 37 37 37 37
40 40 40 40 40 40 40 41 40 40 40 41 41 41 41 41 41 40 40 40 40 40 40 40 40 40 40 41 40 40 39 39 38 38 38 37 37 37 37 37 37 37 36 36
37 38 38 38 38 38 38 39 39 39 40 40 40 41 40 40 39 40 40 39 39 39 38 38 38 38 38 38 38 38 38 38 38 37 37 36 36 36 36 36 36 35 35 34
34 35 36 36 37 37 37 38 38 38 38 38 39 39 39 38 38 38 37 37 37 37 37 37 36 37 37 36 36 36 36 36 37 37 36 36 35 35 35 34 34 33 32 32
34 35 36 37 37 37 36 36 37 37 37 37 37 37 37 36 35 36 35 35 35 35 35 35 36 35 35 35 34 35 35 35 35 35 35 35 35 34 33 33 32 31 31 31
35 35 36 36 37 36 36 36 36 36 36 36 36 36 36 35 35 34 34 34 34 34 34 34 34 34 33 33 33 33 33 33 34 34 34 33 33 32 31 30 30 29 29 29
33 34 34 35 35 35 36 36 36 35 35 35 35 35 35 35 35 35 35 34 34 34 33 33 33 33 33 33 33 33 32 32 32 31 31 30 29 29 28 28 28 27 27 27
32 32 33 33 33 34 34 34 34 34 34 34 34 34 34 34 34 34 34 34 33 33 33 32 32 32 31 31 31 31 30 30 29 28 27 26 26 25 26 26 25 25 25 25
Wind_Direction
284 286 290 293 293 293 295 298 299 301 299 298 295 292 292 288 284 283 283 280 277 275 274 270 268 267 265 262 262 262 263 263 262 263 265 267 269 271 273 275 276 277 278 278
281 283 285 287 288 289 290 292 293 293 294 294 292 290 289 288 286 284 283 281 279 278 277 274 272 270 268 266 264 264 264 265 265 265 266 268 270 272 274 276 277 277 277 278
279 280 283 283 287 287 286 287 289 289 290 290 289 286 285 285 286 285 284 281 280 279 279 277 275 273 271 269 268 267 267 267 267 267 268 270 272 274 275 277 277 278 278 278
278 279 280 284 284 284 285 285 286 286 286 286 286 285 285 284 284 284 283 281 279 278 277 277 275 274 272 270 269 268 269 269 270 270 270 272 273 274 275 277 278 278 278 278
277 278 279 280 282 283 283 284 284 284 284 284 284 284 285 285 283 283 282 281 280 279 278 277 276 275 274 273 271 270 270 270 270 271 271 273 274 276 276 277 278 278 279 279
277 278 280 281 281 282 283 283 283 282 282 283 283 283 284 283 283 283 282 282 281 280 279 278 277 276 275 274 273 272 272 272 272 272 273 274 275 276 277 277 278 279 279 279
276 278 279 280 281 281 282 283 282 282 282 282 282 283 283 283 283 284 283 282 281 280 279 278 277 276 275 274 274 273 273 273 273 273 274 275 275 276 277 278 278 278 279 279
273 275 278 280 280 280 280 281 281 281 282 282 282 283 283 283 283 283 283 282 282 281 280 278 277 276 276 275 274 274 274 273 273 273 274 275 276 277 278 278 278 278 279 279
272 274 276 276 277 278 278 279 280 280 281 282 282 283 283 283 283 283 283 283 283 282 281 279 277 277 277 276 276 275 274 274 273 274 275 276 277 277 277 278 279 279 279 280
271 273 273 274 275 276 276 277 278 279 280 281 282 283 283 283 283 283 283 283 283 282 280 279 278 278 278 277 277 277 276 276 275 275 276 277 277 278 278 278 279 279 279 280
272 272 273 274 275 275 275 277 278 279 280 281 281 282 283 283 284 284 284 283 282 281 281 280 279 279 278 278 278 278 278 278 277 277 278 278 278 278 278 278 279 279 280 280
273 273 274 274 275 276 277 278 279 280 281 281 282 282 283 283 284 284 283 283 282 282 281 280 280 279 279 279 279 279 279 279 279 279 279 279 279 279 280 280 280 281 281 282
273 273 274 275 276 277 279 280 280 281 282 283 283 283 283 283 283 283 282 282 282 282 281 281 281 280 280 280 280 280 280 280 280 280 279 279 280 280 280 280 280 281 282 282
273 273 274 275 276 277 278 279 280 280 281 282 282 283 283 283 282 282 282 282 282 282 282 282 281 280 280 280 280 280 281 281 281 281 280 280 280 280 280 281 281 281 281 282
272 273 274 275 276 277 278 279 279 280 281 281 282 282 282 283 283 282 282 282 282 282 281 281 281 281 281 281 281 281 281 281 281 281 280 280 280 280 281 282 282 282 282 281
272 273 274 276 277 278 279 279 279 280 280 281 281 282 282 283 283 283 283 282 283 282 282 281 281 281 281 281 281 281 281 281 281 281 281 281 281 281 282 282 282 283 282 282
273 274 275 276 277 278 279 279 280 280 281 281 281 282 283 283 283 283 283 283 283 282 282 281 281 280 280 280 280 280 281 281 282 282 283 283 283 282 282 282 282 282 282 282
274 275 276 277 278 278 279 279 280 280 280 281 281 282 282 282 282 282 283 283 283 282 281 281 280 279 278 279 279 280 281 282 282 283 283 283 283 283 283 282 282 282 282 282
275 276 277 278 278 278 279 279 279 280 280 281 282 282 282 283 283 283 282 282 282 281 280 280 280 279 279 279 280 280 281 281 282 282 283 283 283 283 283 283 283 282 281 282
275 276 277 278 278 278 278 278 278 279 281 282 282 282 282 282 283 283 282 282 282 281 281 281 280 280 279 279 280 280 280 281 282 283 284 284 283 283 283 284 283 283 282 281
275 276 276 277 277 277 278 279 279 280 281 282 282 282 282 282 283 283 283 283 282 281 281 281 281 281 280 280 281 281 281 281 281 282 284 284 284 284 284 284 284 284 282 280
274 275 276 276 277 277 278 279 280 281 281 282 283 283 283 283 283 284 284 284 283 282 282 283 283 282 282 282 281 281 281 280 281 282 282 283 283 284 284 284 284 283 282 280
276 276 277 278 278 279 280 280 281 282 283 283 284 284 284 284 284 284 284 284 284 284 283 283 283 283 283 282 282 281 281 281 281 281 282 282 283 283 283 283 283 282 281 280
278 278 278 279 280 281 282 282 281 282 282 283 284 284 284 284 284 285 285 285 285 284 284 283 283 283 283 283 283 282 282 281 281 281 281 282 282 282 282 281 281 281 281 280
280 280 280 281 281 281 282 281 281 281 282 283 284 284 284 284 285 285 286 287 287 286 285 284 283 283 283 284 283 283 282 282 282 282 281 281 280 280 280 280 281 280 280 280
281 281 281 282 282 283 283 282 282 282 283 283 284 284 284 284 285 285 286 286 286 286 285 283 283 283 283 283 283 283 283 283 282 282 281 280 280 279 279 279 280 279 280 281
283 283 283 284 284 284 284 283 283 282 283 284 285 285 286 286 285 285 284 285 285 285 284 284 284 285 285 284 284 284 283 282 281 281 279 279 280 280 280 280 278 279 281 282
Height
5679 5678 5676 5675 5674 5673 5671 5670 5669 5668 5666 5665 5663 5662 5660 5659 5658 5658 5657 5657 5657 5656 5656 5657 5658 5658 5660 5661 5662 5663 5664 5664 5664 5664 5665 5664 5664 5664 5663 5662 5661 5660 5658 5656
5673 5671 5670 5669 5668 5667 5666 5665 5664 5662 5662 5660 5659 5657 5656 5654 5653 5653 5652 5651 5651 5650 5650 5650 5650 5651 5652 5652 5653 5653 5654 5654 5654 5654 5654 5654 5653 5652 5651 5650 5648 5647 5645 5643
5665 5664 5662 5662 5662 5661 5659 5658 5658 5656 5656 5654 5653 5651 5650 5649 5648 5647 5645 5645 5644 5643 5643 5642 5642 5642 5642 5642 5642 5643 5643 5643 5643 5643 5642 5642 5641 5640 5638 5637 5635 5634 5632 5630
5655 5656 5654 5657 5654 5653 5652 5651 5650 5649 5648 5646 5645 5644 5643 5641 5640 5639 5638 5637 5636 5635 5634 5634 5633 5632 5632 5632 5632 5632 5632 5631 5631 5630 5630 5629 5628 5627 5625 5623 5622 5620 5618 5616
5646 5645 5645 5647 5646 5644 5643 5643 5641 5639 5638 5637 5636 5636 5636 5633 5631 5630 5629 5628 5627 5626 5625 5623 5622 5621 5621 5620 5620 5620 5619 5619 5618 5617 5617 5616 5614 5613 5612 5610 5608 5606 5604 5602
5636 5635 5636 5639 5636 5634 5634 5633 5632 5630 5629 5628 5627 5626 5627 5624 5622 5621 5619 5618 5617 5615 5614 5612 5611 5610 5609 5608 5607 5607 5606 5605 5605 5604 5603 5602 5601 5599 5597 5596 5594 5592 5590 5588
5626 5624 5625 5627 5625 5624 5624 5624 5621 5619 5619 5618 5616 5616 5615 5614 5612 5610 5608 5607 5605 5603 5602 5600 5599 5598 5597 5596 5594 5593 5592 5592 5591 5589 5588 5587 5586 5584 5583 5581 5580 5578 5576 5574
5615 5614 5617 5615 5614 5613 5612 5611 5609 5608 5607 5606 5605 5604 5602 5601 5600 5598 5596 5594 5592 5590 5589 5587 5586 5584 5584 5582 5581 5580 5579 5577 5576 5575 5574 5572 5571 5569 5567 5566 5564 5562 5560 5559
5605 5606 5604 5603 5602 5601 5599 5598 5597 5596 5596 5594 5593 5592 5590 5589 5587 5585 5583 5581 5579 5576 5575 5573 5572 5570 5570 5569 5567 5566 5564 5563 5561 5560 5559 5557 5555 5554 5552 5550 5549 5547 5545 5543
5592 5593 5592 5591 5589 5588 5587 5586 5584 5583 5583 5581 5580 5578 5577 5575 5573 5571 5569 5567 5565 5562 5561 5560 5558 5556 5555 5554 5553 5551 5550 5549 5547 5545 5544 5542 5540 5538 5537 5535 5533 5531 5529 5528
5579 5579 5578 5578 5577 5576 5574 5573 5572 5571 5569 5568 5566 5565 5563 5561 5559 5557 5555 5553 5551 5549 5547 5546 5544 5542 5541 5540 5538 5537 5536 5534 5532 5530 5529 5527 5525 5523 5522 5520 5518 5516 5514 5512
5566 5566 5565 5565 5564 5563 5561 5560 5559 5557 5556 5554 5552 5550 5548 5547 5545 5543 5541 5539 5537 5535 5533 5531 5529 5528 5527 5525 5524 5523 5521 5519 5517 5516 5514 5512 5511 5509 5507 5505 5503 5501 5499 5497
5551 5551 5551 5551 5550 5549 5548 5546 5545 5543 5541 5540 5538 5536 5534 5533 5531 5529 5527 5525 5523 5521 5519 5517 5515 5514 5512 5511 5510 5508 5507 5505 5503 5501 5499 5498 5496 5495 5493 5491 5489 5486 5484 5482
5537 5537 5537 5537 5536 5535 5533 5532 5531 5529 5527 5526 5524 5522 5520 5518 5516 5514 5512 5510 5508 5506 5504 5503 5501 5499 5498 5496 5495 5494 5492 5490 5488 5487 5485 5483 5481 5480 5478 5477 5475 5473 5470 5467
5523 5522 5522 5522 5521 5520 5519 5518 5516 5515 5513 5512 5509 5507 5505 5503 5501 5499 5497 5495 5493 5491 5489 5488 5486 5485 5483 5482 5480 5479 5477 5476 5474 5472 5470 5468 5467 5465 5463 5461 5459 5458 5456 5453
5509 5508 5507 5507 5507 5506 5504 5503 5502 5500 5499 5497 5495 5493 5491 5488 5486 5484 5482 5480 5478 5476 5475 5473 5472 5470 5469 5467 5466 5464 5463 5461 5459 5458 5456 5454 5452 5450 5448 5447 5445 5443 5441 5440
5494 5494 5494 5493 5492 5491 5490 5488 5487 5486 5484 5482 5481 5478 5476 5474 5472 5470 5468 5466 5464 5462 5460 5459 5457 5456 5454 5453 5451 5450 5449 5448 5446 5444 5442 5440 5438 5436 5434 5433 5431 5430 5428 5426
5480 5479 5479 5479 5478 5477 5476 5474 5473 5472 5470 5468 5466 5464 5462 5460 5459 5457 5455 5453 5451 5449 5447 5445 5444 5442 5441 5439 5438 5437 5436 5435 5433 5431 5429 5427 5425 5423 5421 5420 5418 5417 5416 5414
5467 5466 5466 5465 5464 5463 5462 5461 5459 5458 5456 5455 5453 5451 5449 5447 5446 5444 5442 5440 5438 5436 5434 5432 5431 5429 5428 5427 5425 5424 5423 5421 5420 5418 5416 5415 5413 5411 5409 5408 5406 5405 5403 5402
5454 5454 5453 5452 5451 5450 5449 5447 5446 5445 5444 5442 5440 5439 5437 5435 5433 5431 5429 5427 5425 5423 5422 5420 5418 5417 5415 5414 5412 5411 5410 5409 5407 5406 5404 5402 5401 5399 5397 5396 5394 5393 5391 5390
5442 5441 5441 5440 5439 5438 5436 5435 5434 5433 5432 5430 5428 5426 5424 5423 5420 5418 5417 5415 5413 5410 5409 5407 5405 5404 5403 5401 5400 5399 5397 5396 5395 5393 5392 5390 5389 5388 5386 5384 5383 5381 5380 5379
5430 5429 5429 5428 5427 5426 5425 5423 5422 5420 5419 5417 5415 5413 5412 5410 5408 5406 5404 5402 5400 5398 5397 5395 5393 5392 5390 5389 5387 5386 5385 5384 5383 5382 5380 5379 5378 5376 5375 5373 5372 5370 5369 5368
5419 5418 5417 5416 5415 5414 5413 5412 5410 5408 5407 5405 5403 5401 5399 5398 5396 5394 5393 5391 5388 5386 5385 5383 5381 5380 5378 5377 5375 5374 5373 5372 5371 5370 5368 5367 5366 5365 5363 5362 5361 5359 5358 5357
5409 5407 5406 5405 5404 5402 5401 5400 5398 5397 5395 5394 5392 5390 5388 5386 5385 5382 5380 5379 5377 5375 5373 5371 5370 5368 5367 5365 5364 5363 5361 5360 5359 5358 5357 5356 5355 5354 5353 5351 5351 5349 5348 5347
5398 5397 5395 5394 5392 5391 5390 5389 5387 5386 5384 5382 5381 5378 5376 5374 5373 5371 5369 5367 5366 5364 5362 5360 5358 5357 5355 5354 5352 5351 5350 5349 5348 5346 5345 5344 5344 5343 5342 5341 5340 5340 5339 5338
5387 5386 5384 5383 5381 5380 5378 5377 5376 5374 5372 5371 5370 5367 5365 5363 5361 5360 5358 5356 5354 5353 5351 5349 5347 5346 5344 5342 5341 5340 5338 5337 5336 5335 5335 5334 5333 5333 5332 5332 5331 5331 5330 5329
5377 5375 5374 5373 5371 5369 5367 5366 5364 5363 5361 5360 5358 5357 5354 5352 5350 5348 5347 5345 5343 5342 5340 5338 5336 5334 5333 5331 5330 5329 5328 5327 5326 5325 5325 5325 5324 5324 5323 5323 5322 5322 5322 5321